Waarnemingen

Advertentie
Mijn weer
Hyeres, Frankrijk (7667): temperatuur & dauwpunt: 23.03.2017 21:00:00 - 29.03.2017 21:00:00 (CEST)Hyeres, Frankrijk (7667): temperatuur 5cm: 23.03.2017 21:00:00 - 29.03.2017 21:00:00 (CEST)Hyeres, Frankrijk (7667): windsnelheid & windstoten: 23.03.2017 21:00:00 - 29.03.2017 21:00:00 (CEST)Hyeres, Frankrijk (7667): windrichting: 23.03.2017 21:00:00 - 29.03.2017 21:00:00 (CEST)Hyeres, Frankrijk (7667): luchtdruk: 23.03.2017 21:00:00 - 29.03.2017 21:00:00 (CEST)Hyeres, Frankrijk (7667): zicht: 23.03.2017 21:00:00 - 29.03.2017 21:00:00 (CEST)Hyeres, Frankrijk (7667): neerslag: 23.03.2017 21:00:00 - 29.03.2017 21:00:00 (CEST)
Datum & Tijd tt [°C] td [°C] tt 5cm [°C] ff [km/u] ff [kn] fx [km/u] fx [kn] dd ppp [hPa] vv [km] rr [mm]
29.03.2017 21:00:00 13,7 11,9 10,2 3 2 14 8 W 1024,4 15 0,0
29.03.2017 20:00:00 14,6 11,9 13,2 10 5 19 10 ZZW 1024,0 19 0,0
29.03.2017 19:00:00 16,0 12,2 17,8 16 8 25 13 ZZW 1023,9 52 0,0
29.03.2017 18:00:00 16,4 12,4 19,8 17 9 23 13 ZZW 1023,8 20 0,0
29.03.2017 17:00:00 17,2 12,3 22,7 18 10 24 13 ZW 1024,0 20 0,0
29.03.2017 16:00:00 19,3 11,6 26,5 10 5 17 9 Z 1024,3 47 0,0
29.03.2017 15:00:00 19,1 7,8 26,1 11 6 17 9 OZO 1024,7 60 0,0
29.03.2017 14:00:00 19,1 6,9 26,7 8 5 20 11 ZZO 1025,2 60 0,0
29.03.2017 13:00:00 18,4 7,5 25,6 11 6 22 12 ZZO 1025,5 19 0,0
29.03.2017 12:00:00 18,1 6,6 25,3 8 4 12 7 OZO 1025,5 60 0,0
29.03.2017 11:00:00 18,6 6,7 25,0 4 2 10 5 ZO 1025,4 58 0,0
29.03.2017 10:00:00 16,3 9,7 17,4 2 1 9 5 N 1024,9 46 0,0
29.03.2017 09:00:00 12,2 9,2 7,2 6 4 11 6 N 1024,5 20 0,0
29.03.2017 08:00:00 7,3 6,1 3,6 6 4 9 5 NNW 1024,2 33 0,0
29.03.2017 07:00:00 6,1 5,1 3,9 6 3 12 6 N 1023,6 20 0,0
29.03.2017 06:00:00 6,5 5,3 4,2 6 3 8 5 N 1023,2 20 0,0
29.03.2017 05:00:00 7,1 5,2 3,9 7 4 12 7 N 1023,2 41 0,0
29.03.2017 04:00:00 6,8 5,3 4,0 10 5 11 6 NNW 1023,5 38 0,0
29.03.2017 03:00:00 7,3 4,9 3,8 3 2 6 3 N 1023,9 36 0,0
29.03.2017 02:00:00 7,6 5,6 3,8 3 2 7 4 NW 1024,0 33 0,0
29.03.2017 01:00:00 8,9 6,2 4,6 3 2 5 3 N 1024,4 42 0,0
29.03.2017 00:00:00 9,5 6,2 5,1 3 1 10 5 W 1024,4 37 0,0
28.03.2017 23:00:00 11,9 5,7 5,7 5 3 9 5 NW 1024,1 46 0,0
28.03.2017 22:00:00 12,2 6,0 7,3 3 1 13 7 WNW 1023,8 56 0,0
28.03.2017 21:00:00 13,3 5,9 8,9 8 4 14 8 NW 1023,4 60 0,0
28.03.2017 20:00:00 15,7 6,4 12,7 4 2 29 15 ZO 1022,8 60 0,0
28.03.2017 19:00:00 18,2 6,4 18,5 15 8 32 17 W 1022,4 55 0,0
28.03.2017 18:00:00 18,5 7,3 20,0 19 10 32 17 W 1022,2 60 0,0
28.03.2017 17:00:00 19,3 8,0 23,0 21 11 34 18 W 1022,5 60 0,0
28.03.2017 16:00:00 19,6 8,3 23,1 19 10 37 20 WZW 1022,9 54 0,0
28.03.2017 15:00:00 18,4 9,2 22,7 23 12 32 18 ZW 1023,7 45 0,0
28.03.2017 14:00:00 18,3 9,1 22,6 24 13 33 18 ZW 1024,4 19 0,0
28.03.2017 13:00:00 17,1 9,5 21,4 23 13 31 17 ZW 1024,9 20 0,0
28.03.2017 12:00:00 16,1 9,7 21,6 20 11 27 14 ZW 1025,3 20 0,0
28.03.2017 11:00:00 16,3 8,5 22,1 16 9 23 12 ZZW 1025,4 44 0,0
28.03.2017 10:00:00 15,1 9,0 17,9 5 3 31 17 NNW 1025,3 20 0,0
28.03.2017 09:00:00 12,6 8,7 10,2 8 5 12 6 NNW 1025,0 19 0,0
28.03.2017 08:00:00 10,5 7,6 8,8 6 3 21 11 NNW 1024,6 29 0,0
28.03.2017 07:00:00 10,2 7,6 8,4 9 5 13 7 NNW 1024,5 35 0,0
28.03.2017 06:00:00 9,6 7,2 8,5 8 4 11 6 NNW 1024,4 36 0,0
28.03.2017 05:00:00 9,3 6,9 8,4 7 4 10 6 N 1024,3 37 0,0
28.03.2017 04:00:00 9,3 6,9 5,3 9 5 13 7 NNW 1024,4 33 0,0
28.03.2017 03:00:00 7,8 5,6 4,5 8 5 11 6 NNW 1024,8 34 0,0
28.03.2017 02:00:00 7,7 5,5 5,2 6 4 14 8 N 1024,6 32 0,0
28.03.2017 01:00:00 8,7 6,5 5,1 15 8 18 10 NW 1024,2 32 0,0
28.03.2017 00:00:00 8,4 5,9 4,4 6 3 10 5 NNW 1024,1 27 0,0
27.03.2017 23:00:00 8,4 6,2 4,5 5 3 8 4 NNW 1024,0 20 0,0
27.03.2017 22:00:00 10,4 7,1 5,7 0 0 9 5 N 1023,8 24 0,0
27.03.2017 21:00:00 12,3 7,2 8,0 0 0 15 8 N 1023,1 32 0,0
27.03.2017 20:00:00 13,7 7,9 11,0 10 6 20 11 O 1022,4 57 0,0
27.03.2017 19:00:00 14,7 8,4 15,2 16 9 31 17 O 1022,2 60 0,0
27.03.2017 18:00:00 15,4 8,2 18,8 18 10 26 14 O 1022,5 60 0,0
27.03.2017 17:00:00 15,7 8,7 20,1 19 10 24 13 OZO 1022,7 41 0,0
27.03.2017 16:00:00 16,0 8,7 21,4 18 10 25 14 O 1023,5 40 0,0
27.03.2017 15:00:00 16,2 8,9 22,0 19 11 28 15 OZO 1024,0 20 0,0
27.03.2017 14:00:00 16,3 9,5 21,3 23 12 37 20 OZO 1023,9 38 -
27.03.2017 13:00:00 16,3 11,0 20,0 25 13 43 23 O 1023,7 38 0,0
27.03.2017 12:00:00 16,0 9,9 17,9 29 15 40 22 O 1023,4 39 0,0
27.03.2017 11:00:00 15,0 10,2 15,0 24 13 40 22 O 1023,1 20 0,0
27.03.2017 10:00:00 15,1 11,3 14,4 22 12 29 16 O 1022,5 38 0,0
27.03.2017 09:00:00 13,5 11,0 10,0 11 6 16 9 NO 1022,3 20 0,0
27.03.2017 08:00:00 10,9 9,5 9,2 11 6 22 12 NNO 1021,7 20 0,0
27.03.2017 07:00:00 11,6 9,8 7,5 14 8 22 12 NO 1020,9 35 0,0
27.03.2017 06:00:00 9,8 8,7 6,8 9 5 16 9 NNO 1020,8 32 0,2
27.03.2017 05:00:00 8,7 7,9 5,5 11 6 16 8 NNW 1020,6 17 0,0
27.03.2017 04:00:00 9,2 7,6 7,0 10 5 17 9 NW 1020,8 20 0,0
27.03.2017 03:00:00 8,6 7,7 6,2 11 6 15 8 NW 1020,7 18 0,0
27.03.2017 02:00:00 8,6 7,7 4,9 10 5 15 8 NNW 1020,6 20 0,0
27.03.2017 01:00:00 10,5 8,4 5,6 2 1 10 6 NNO 1020,4 19 0,0
27.03.2017 00:00:00 12,4 9,4 8,5 6 3 17 9 W 1019,8 50 0,0
26.03.2017 23:00:00 12,5 9,9 9,1 4 2 24 13 W 1019,4 53 0,0
26.03.2017 22:00:00 13,1 9,9 11,7 16 9 37 20 W 1018,9 57 0,0
26.03.2017 21:00:00 13,3 9,9 11,9 13 7 38 20 WZW 1018,7 58 0,0
26.03.2017 20:00:00 13,7 9,7 12,6 22 12 40 22 WZW 1018,2 58 0,0
26.03.2017 19:00:00 14,7 10,5 15,7 32 17 46 25 WZW 1017,6 38 0,0
26.03.2017 18:00:00 15,1 10,3 17,1 33 18 46 25 ZW 1017,5 40 0,0
26.03.2017 17:00:00 15,6 10,4 18,9 27 15 41 22 ZW 1017,7 46 0,0
26.03.2017 16:00:00 16,1 9,3 19,3 29 16 42 23 ZW 1018,7 44 0,0
26.03.2017 15:00:00 16,0 10,3 20,8 27 14 39 21 ZW 1019,7 48 0,0
26.03.2017 14:00:00 15,4 10,6 21,0 21 12 31 17 ZW 1020,2 57 0,0
26.03.2017 13:00:00 15,9 10,9 22,1 20 11 30 16 WZW 1020,4 20 0,0
26.03.2017 12:00:00 15,5 10,7 22,5 12 6 21 12 ZZW 1020,8 19 0,0
26.03.2017 11:00:00 15,7 8,7 19,1 3 2 13 7 N 1020,8 60 0,0
26.03.2017 10:00:00 12,8 8,9 12,8 10 5 30 16 NW 1020,1 60 0,0
26.03.2017 09:00:00 9,9 7,7 7,6 11 6 23 12 NNW 1019,8 60 0,0
26.03.2017 08:00:00 7,2 6,0 3,9 11 6 16 9 NNW 1019,9 55 0,0
26.03.2017 07:00:00 5,6 4,6 4,0 10 6 14 7 NNW 1019,8 60 0,0
26.03.2017 06:00:00 6,2 5,3 3,9 11 6 16 9 NW 1019,9 60 0,0
26.03.2017 05:00:00 6,4 5,5 4,5 13 7 15 8 NNW 1020,2 59 0,0
26.03.2017 04:00:00 6,3 5,4 4,5 11 6 15 8 NNW 1020,4 60 0,0
26.03.2017 03:00:00 6,8 6,2 3,4 13 7 16 8 NNW 1021,0 54 0,2
26.03.2017 02:00:00 6,2 5,6 3,8 9 5 13 7 NNW 1020,8 42 0,0
26.03.2017 01:00:00 6,8 6,2 4,0 7 4 11 6 NNO 1021,1 15 0,0
26.03.2017 00:00:00 7,2 6,3 4,4 10 5 12 7 N 1021,0 18 0,0
25.03.2017 23:00:00 8,1 7,0 4,9 11 6 14 8 NW 1020,6 20 0,0
25.03.2017 22:00:00 10,8 8,7 8,8 3 2 18 10 NW 1020,4 47 0,0
25.03.2017 21:00:00 11,4 9,5 9,6 14 8 23 12 ONO 1019,4 19 0,0
25.03.2017 20:00:00 11,1 9,8 9,7 4 2 10 6 N 1019,6 20 0,0
25.03.2017 19:00:00 11,7 9,9 11,8 3 2 9 5 ONO 1019,5 39 0,0
25.03.2017 18:00:00 11,8 10,2 11,6 4 2 11 6 N 1019,0 42 0,0
25.03.2017 17:00:00 11,7 9,4 11,8 4 2 18 10 N 1019,1 57 0,0
25.03.2017 16:00:00 11,9 9,5 11,5 0 0 13 7 N 1019,6 60 0,0
25.03.2017 15:00:00 11,9 10,1 11,7 11 6 24 13 NO 1019,6 19 0,0
25.03.2017 14:00:00 11,8 10,0 10,7 15 8 23 13 ONO 1020,1 54 1,2
25.03.2017 13:00:00 11,6 10,0 11,0 19 10 32 18 OZO 1020,0 6 3,7
25.03.2017 12:00:00 12,3 11,2 11,6 10 5 37 20 ZO 1019,7 5 5,2
25.03.2017 11:00:00 13,3 12,4 12,7 31 17 56 31 OZO 1018,7 3,4 3,9
25.03.2017 10:00:00 13,7 12,4 12,7 27 14 59 32 O 1017,6 3,9 4,8
25.03.2017 09:00:00 14,3 11,6 12,6 40 22 66 36 OZO 1017,0 6 0,8
25.03.2017 08:00:00 15,8 10,5 14,9 45 24 74 40 O 1016,2 19 0,0
25.03.2017 07:00:00 15,9 10,2 14,8 45 25 66 36 O 1015,1 30 0,0
25.03.2017 06:00:00 16,1 10,2 14,8 43 23 71 38 O 1015,3 33 0,0
25.03.2017 05:00:00 16,0 10,1 14,7 44 24 67 36 O 1015,7 33 0,0
25.03.2017 04:00:00 16,3 9,9 14,7 44 24 66 36 O 1016,6 20 0,0
25.03.2017 03:00:00 16,2 10,5 14,8 40 22 68 37 O 1017,4 20 0,0
25.03.2017 02:00:00 16,2 10,1 14,9 40 22 64 35 O 1017,7 20 0,0
25.03.2017 01:00:00 16,9 9,1 15,3 41 22 65 35 O 1017,0 41 0,0
25.03.2017 00:00:00 17,2 9,1 15,8 45 25 76 41 O 1016,9 44 0,0
24.03.2017 23:00:00 17,4 8,5 15,7 41 22 64 35 ONO 1016,2 46 0,0
24.03.2017 22:00:00 17,4 9,3 15,5 36 19 55 30 ONO 1016,7 50 0,0
24.03.2017 21:00:00 16,9 9,1 15,4 32 17 55 30 O 1017,0 43 0,0
24.03.2017 20:00:00 16,6 9,0 15,2 26 14 53 29 ONO 1017,3 44 0,0
24.03.2017 19:00:00 16,3 9,9 14,1 28 15 61 33 ONO 1017,5 35 0,0
24.03.2017 18:00:00 16,4 9,8 15,6 40 22 61 33 ONO 1017,6 39 0,0
24.03.2017 17:00:00 15,7 10,9 15,3 39 21 57 31 ONO 1017,8 20 0,0
24.03.2017 16:00:00 16,0 11,6 15,0 39 21 62 34 ONO 1017,5 19 0,0
24.03.2017 15:00:00 15,2 12,1 14,1 40 22 65 35 O 1018,3 20 0,2
24.03.2017 14:00:00 15,5 12,1 14,6 37 20 61 33 O 1018,4 27 0,0
24.03.2017 13:00:00 15,4 12,3 15,1 36 20 53 29 ONO 1017,8 35 0,0
24.03.2017 12:00:00 15,5 12,4 14,4 34 19 65 35 ONO 1017,8 19 0,0
24.03.2017 11:00:00 14,6 12,3 13,4 36 20 59 32 O 1017,8 20 0,0
24.03.2017 10:00:00 13,8 11,8 12,8 24 13 35 19 NO 1017,2 35 0,0
24.03.2017 09:00:00 13,4 11,5 11,4 22 12 32 17 NO 1017,1 42 0,0
24.03.2017 08:00:00 12,5 10,7 11,4 13 7 34 18 ONO 1017,4 18 0,2
24.03.2017 07:00:00 12,7 11,3 - 26 14 - - ONO 1017,4 15 -
24.03.2017 06:00:00 - - - - - - - - - - -
24.03.2017 05:00:00 - - - - - - - - - - -
24.03.2017 04:00:00 - - - - - - - - - - -
24.03.2017 03:00:00 - - - - - - - - - - -
24.03.2017 02:00:00 - - - - - - - - - - -
24.03.2017 01:00:00 - - - - - - - - - - -
24.03.2017 00:00:00 12,6 11,3 - 24 13 46 25 OZO 1017,6 6 3,0
23.03.2017 23:00:00 13,2 11,4 12,0 26 14 47 26 ZO 1017,3 7 2,2
23.03.2017 22:00:00 14,7 12,7 - 26 14 42 23 ZO 1015,9 9 0,2
23.03.2017 21:00:00 - - - - - - - - - - -

tt = temperatuur
td = dauwpunt
tt 5cm = temperatuur 5cm
ff = windsnelheid
fx = windstoten
dd = windrichting
ppp = luchtdruk
vv = zicht
rr = neerslag

Weerstations in de omgeving